owner,sensor,date,latitude,longitude,vertical_datum,direction_of_sea_water_velocity,sea_water_speed,upward_sea_water_velocity,qcFlag 
TABS,ioos:station:wmo:42045:1,2008-02-01T00:00:00Z,26.2168,-96.4998,2.0,209.8848382,40.54087444,-99999.0,'11111222,11111222,99999999' 
TABS,ioos:station:wmo:42045:1,2008-02-01T00:30:00Z,26.2168,-96.4998,2.0,211.8248074,42.78172624,-99999.0,'11111222,11111222,99999999' 
TABS,ioos:station:wmo:42045:1,2008-02-01T01:00:00Z,26.2168,-96.4998,2.0,215.8950424,41.1559534,-99999.0,'11111222,11111222,99999999' 
TABS,ioos:station:wmo:42045:1,2008-02-01T01:30:00Z,26.2168,-96.4998,2.0,204.3837587,35.60610762,-99999.0,'11111222,11111222,99999999' 
TABS,ioos:station:wmo:42045:1,2008-02-01T02:00:00Z,26.2168,-96.4998,2.0,211.4824647,38.81343711,-99999.0,'11111222,11111222,99999999' 
TABS,ioos:station:wmo:42045:1,2008-02-01T02:30:00Z,26.2168,-96.4998,2.0,220.3665512,37.64208815,-99999.0,'11111222,11111222,99999999' 
TABS,ioos:station:wmo:42045:1,2008-02-01T03:00:00Z,26.2168,-96.4998,2.0,212.8193565,43.63497909,-99999.0,'11111222,11111222,99999999' 
TABS,ioos:station:wmo:42045:1,2008-02-01T03:30:00Z,26.2168,-96.4998,2.0,227.0114844,37.867696,-99999.0,'11111222,11111222,99999999' 
TABS,ioos:station:wmo:42045:1,2008-02-01T04:00:00Z,26.2168,-96.4998,2.0,222.7603392,36.012166,-99999.0,'11111222,11111222,99999999' 
TABS,ioos:station:wmo:42045:1,2008-02-01T04:30:00Z,26.2168,-96.4998,2.0,230.6020729,36.14316671,-99999.0,'11111222,11111222,99999999' 
TABS,ioos:station:wmo:42045:1,2008-02-01T05:00:00Z,26.2168,-96.4998,2.0,217.4969909,41.64449664,-99999.0,'11111222,11111222,99999999' 
TABS,ioos:station:wmo:42045:1,2008-02-01T05:30:00Z,26.2168,-96.4998,2.0,230.8573476,37.27531355,-99999.0,'11111222,11111222,99999999' 
TABS,ioos:station:wmo:42045:1,2008-02-01T06:00:00Z,26.2168,-96.4998,2.0,242.9535415,36.22110573,-99999.0,'11111222,11111222,99999999' 
TABS,ioos:station:wmo:42045:1,2008-02-01T06:30:00Z,26.2168,-96.4998,2.0,231.4200853,40.15387528,-99999.0,'11111222,11111222,99999999' 
TABS,ioos:station:wmo:42045:1,2008-02-01T07:00:00Z,26.2168,-96.4998,2.0,236.4351009,35.4509746,-99999.0,'11111222,11111222,99999999' 
TABS,ioos:station:wmo:42045:1,2008-02-01T07:30:00Z,26.2168,-96.4998,2.0,235.1234313,31.61913977,-99999.0,'11111222,11111222,99999999' 
TABS,ioos:station:wmo:42045:1,2008-02-01T08:00:00Z,26.2168,-96.4998,2.0,243.7113784,30.54951718,-99999.0,'11111222,11111222,99999999' 
TABS,ioos:station:wmo:42045:1,2008-02-01T08:30:00Z,26.2168,-96.4998,2.0,253.0155662,26.97655278,-99999.0,'11111222,11111222,99999999' 
TABS,ioos:station:wmo:42045:1,2008-02-01T09:00:00Z,26.2168,-96.4998,2.0,248.7069518,30.95291909,-99999.0,'11111222,11111222,99999999' 
TABS,ioos:station:wmo:42045:1,2008-02-01T09:30:00Z,26.2168,-96.4998,2.0,248.2257099,27.09295296,-99999.0,'11111222,11111222,99999999' 
TABS,ioos:station:wmo:42045:1,2008-02-01T10:00:00Z,26.2168,-96.4998,2.0,245.6657594,29.29233688,-99999.0,'11111222,11111222,99999999' 
TABS,ioos:station:wmo:42045:1,2008-02-01T10:30:00Z,26.2168,-96.4998,2.0,259.0778999,26.91755747,-99999.0,'11111222,11111222,99999999' 
TABS,ioos:station:wmo:42045:1,2008-02-01T11:00:00Z,26.2168,-96.4998,2.0,264.9052139,27.47854618,-99999.0,'11111222,11111222,99999999' 
TABS,ioos:station:wmo:42045:1,2008-02-01T11:30:00Z,26.2168,-96.4998,2.0,254.29026,24.00670948,-99999.0,'11111222,11111222,99999999' 
TABS,ioos:station:wmo:42045:1,2008-02-01T12:00:00Z,26.2168,-96.4998,2.0,259.1947146,26.03150591,-99999.0,'11111222,11111222,99999999' 
TABS,ioos:station:wmo:42045:1,2008-02-01T12:30:00Z,26.2168,-96.4998,2.0,270.2042386,25.30016008,-99999.0,'11111222,11111222,99999999' 
TABS,ioos:station:wmo:42045:1,2008-02-01T13:00:00Z,26.2168,-96.4998,2.0,267.643265,23.34974304,-99999.0,'11111222,11111222,99999999' 
TABS,ioos:station:wmo:42045:1,2008-02-01T13:30:00Z,26.2168,-96.4998,2.0,277.294787,24.3369616,-99999.0,'11111222,11111222,99999999' 
TABS,ioos:station:wmo:42045:1,2008-02-01T14:00:00Z,26.2168,-96.4998,2.0,277.0707492,22.09803837,-99999.0,'11111222,11111222,99999999' 
TABS,ioos:station:wmo:42045:1,2008-02-01T14:30:00Z,26.2168,-96.4998,2.0,286.0144187,21.78540108,-99999.0,'11111222,11111222,99999999' 
TABS,ioos:station:wmo:42045:1,2008-02-01T15:00:00Z,26.2168,-96.4998,2.0,302.1935924,21.66011311,-99999.0,'11111222,11111222,99999999' 
TABS,ioos:station:wmo:42045:1,2008-02-01T15:30:00Z,26.2168,-96.4998,2.0,293.9068439,22.85037636,-99999.0,'11111222,11111222,99999999' 
TABS,ioos:station:wmo:42045:1,2008-02-01T16:00:00Z,26.2168,-96.4998,2.0,306.1832552,23.01965465,-99999.0,'11111222,11111222,99999999' 
TABS,ioos:station:wmo:42045:1,2008-02-01T16:30:00Z,26.2168,-96.4998,2.0,301.6272097,23.26534118,-99999.0,'11111222,11111222,99999999' 
TABS,ioos:station:wmo:42045:1,2008-02-01T17:00:00Z,26.2168,-96.4998,2.0,310.0538625,23.37207094,-99999.0,'11111222,11111222,99999999' 
TABS,ioos:station:wmo:42045:1,2008-02-01T17:30:00Z,26.2168,-96.4998,2.0,315.7379871,24.7154304,-99999.0,'11111222,11111222,99999999' 
TABS,ioos:station:wmo:42045:1,2008-02-01T18:00:00Z,26.2168,-96.4998,2.0,314.8239013,20.66882919,-99999.0,'11111222,11111222,99999999' 
TABS,ioos:station:wmo:42045:1,2008-02-01T18:30:00Z,26.2168,-96.4998,2.0,318.4065597,25.11129825,-99999.0,'11111222,11111222,99999999' 
TABS,ioos:station:wmo:42045:1,2008-02-01T19:00:00Z,26.2168,-96.4998,2.0,321.6816886,24.12771228,-99999.0,'11111222,11111222,99999999' 
TABS,ioos:station:wmo:42045:1,2008-02-01T19:30:00Z,26.2168,-96.4998,2.0,323.7464575,23.62336555,-99999.0,'11111222,11111222,99999999' 
TABS,ioos:station:wmo:42045:1,2008-02-01T20:00:00Z,26.2168,-96.4998,2.0,325.9670336,27.31947474,-99999.0,'11111222,11111222,99999999' 
TABS,ioos:station:wmo:42045:1,2008-02-01T20:30:00Z,26.2168,-96.4998,2.0,327.0123668,28.06439025,-99999.0,'11111222,11111222,99999999' 
TABS,ioos:station:wmo:42045:1,2008-02-01T21:00:00Z,26.2168,-96.4998,2.0,338.0206631,27.4663303,-99999.0,'11111222,11111222,99999999' 
TABS,ioos:station:wmo:42045:1,2008-02-01T21:30:00Z,26.2168,-96.4998,2.0,333.8622387,27.60278971,-99999.0,'11111222,11111222,99999999' 
TABS,ioos:station:wmo:42045:1,2008-02-01T22:00:00Z,26.2168,-96.4998,2.0,338.998808,29.66029332,-99999.0,'11111222,11111222,99999999' 
TABS,ioos:station:wmo:42045:1,2008-02-01T22:30:00Z,26.2168,-96.4998,2.0,342.4555615,27.06920206,-99999.0,'11111222,11111222,99999999' 
TABS,ioos:station:wmo:42045:1,2008-02-01T23:00:00Z,26.2168,-96.4998,2.0,344.8527069,31.76358922,-99999.0,'11111222,11111222,99999999' 
TABS,ioos:station:wmo:42045:1,2008-02-01T23:30:00Z,26.2168,-96.4998,2.0,347.6829447,32.90749003,-99999.0,'11111222,11111222,99999999' 
TABS,ioos:station:wmo:42045:1,2008-02-02T00:00:00Z,26.2168,-96.4998,2.0,348.3501188,32.04005774,-99999.0,'11111222,11111222,99999999' 
TABS,ioos:station:wmo:42045:1,2008-02-02T00:30:00Z,26.2168,-96.4998,2.0,348.8783034,30.48249498,-99999.0,'11111222,11111222,99999999' 
TABS,ioos:station:wmo:42045:1,2008-02-02T01:00:00Z,26.2168,-96.4998,2.0,349.5576623,32.00001406,-99999.0,'11111222,11111222,99999999' 
TABS,ioos:station:wmo:42045:1,2008-02-02T01:30:00Z,26.2168,-96.4998,2.0,354.0540722,33.3997006,-99999.0,'11111222,11111222,99999999' 
TABS,ioos:station:wmo:42045:1,2008-02-02T02:00:00Z,26.2168,-96.4998,2.0,353.4771661,34.94623442,-99999.0,'11111222,11111222,99999999' 
TABS,ioos:station:wmo:42045:1,2008-02-02T02:30:00Z,26.2168,-96.4998,2.0,354.3608008,31.24120676,-99999.0,'11111222,11111222,99999999' 
TABS,ioos:station:wmo:42045:1,2008-02-02T03:00:00Z,26.2168,-96.4998,2.0,357.4873963,31.01982753,-99999.0,'11111222,11111222,99999999' 
TABS,ioos:station:wmo:42045:1,2008-02-02T03:30:00Z,26.2168,-96.4998,2.0,356.6327595,33.70820227,-99999.0,'11111222,11111222,99999999' 
TABS,ioos:station:wmo:42045:1,2008-02-02T04:00:00Z,26.2168,-96.4998,2.0,357.9786126,28.34764364,-99999.0,'11111222,11111222,99999999' 
TABS,ioos:station:wmo:42045:1,2008-02-02T04:30:00Z,26.2168,-96.4998,2.0,0.301111608,32.3704464,-99999.0,'11111222,11111222,99999999' 
TABS,ioos:station:wmo:42045:1,2008-02-02T05:00:00Z,26.2168,-96.4998,2.0,1.146747724,29.48590341,-99999.0,'11111222,11111222,99999999' 
TABS,ioos:station:wmo:42045:1,2008-02-02T05:30:00Z,26.2168,-96.4998,2.0,354.6427335,32.13036103,-99999.0,'11111222,11111222,99999999' 
TABS,ioos:station:wmo:42045:1,2008-02-02T06:00:00Z,26.2168,-96.4998,2.0,359.5719732,32.1108969,-99999.0,'11111222,11144222,99999999' 
TABS,ioos:station:wmo:42045:1,2008-02-02T06:30:00Z,26.2168,-96.4998,2.0,359.6137054,31.13070831,-99999.0,'11111222,11144222,99999999' 
TABS,ioos:station:wmo:42045:1,2008-02-02T07:00:00Z,26.2168,-96.4998,2.0,357.3821537,35.24678992,-99999.0,'11111222,11111222,99999999' 
TABS,ioos:station:wmo:42045:1,2008-02-02T07:30:00Z,26.2168,-96.4998,2.0,355.9532651,32.73161469,-99999.0,'11111222,11111222,99999999' 
TABS,ioos:station:wmo:42045:1,2008-02-02T08:00:00Z,26.2168,-96.4998,2.0,7.702988022,31.85746066,-99999.0,'11111222,11111222,99999999' 
TABS,ioos:station:wmo:42045:1,2008-02-02T08:30:00Z,26.2168,-96.4998,2.0,355.5138971,32.59988497,-99999.0,'11111222,11111222,99999999' 
TABS,ioos:station:wmo:42045:1,2008-02-02T09:00:00Z,26.2168,-96.4998,2.0,1.424703819,35.80106423,-99999.0,'11111222,11111222,99999999' 
TABS,ioos:station:wmo:42045:1,2008-02-02T09:30:00Z,26.2168,-96.4998,2.0,359.1892221,31.7931848,-99999.0,'11111222,11144222,99999999' 
TABS,ioos:station:wmo:42045:1,2008-02-02T10:00:00Z,26.2168,-96.4998,2.0,0.452932213,34.17106671,-99999.0,'11111222,11111222,99999999' 
TABS,ioos:station:wmo:42045:1,2008-02-02T10:30:00Z,26.2168,-96.4998,2.0,1.030933571,30.57494726,-99999.0,'11111222,11111222,99999999' 
TABS,ioos:station:wmo:42045:1,2008-02-02T11:00:00Z,26.2168,-96.4998,2.0,353.460847,32.40080555,-99999.0,'11111222,11111222,99999999' 
TABS,ioos:station:wmo:42045:1,2008-02-02T11:30:00Z,26.2168,-96.4998,2.0,354.37884,31.95366802,-99999.0,'11111222,11111222,99999999' 
TABS,ioos:station:wmo:42045:1,2008-02-02T12:00:00Z,26.2168,-96.4998,2.0,350.9642767,29.1618998,-99999.0,'11111222,11111222,99999999' 
TABS,ioos:station:wmo:42045:1,2008-02-02T12:30:00Z,26.2168,-96.4998,2.0,352.0758351,28.36082157,-99999.0,'11111222,11111222,99999999' 
TABS,ioos:station:wmo:42045:1,2008-02-02T13:00:00Z,26.2168,-96.4998,2.0,344.5591286,32.15048522,-99999.0,'11111222,11111222,99999999' 
TABS,ioos:station:wmo:42045:1,2008-02-02T13:30:00Z,26.2168,-96.4998,2.0,342.9464353,33.58682182,-99999.0,'11111222,11111222,99999999' 
TABS,ioos:station:wmo:42045:1,2008-02-02T14:00:00Z,26.2168,-96.4998,2.0,344.6777208,29.81999329,-99999.0,'11111222,11111222,99999999' 
TABS,ioos:station:wmo:42045:1,2008-02-02T14:30:00Z,26.2168,-96.4998,2.0,336.6599554,32.91337114,-99999.0,'11111222,11111222,99999999' 
TABS,ioos:station:wmo:42045:1,2008-02-02T15:00:00Z,26.2168,-96.4998,2.0,338.3741657,36.41316932,-99999.0,'11111222,11111222,99999999' 
TABS,ioos:station:wmo:42045:1,2008-02-02T15:30:00Z,26.2168,-96.4998,2.0,336.2204582,35.98506635,-99999.0,'11111222,11111222,99999999' 
TABS,ioos:station:wmo:42045:1,2008-02-02T16:00:00Z,26.2168,-96.4998,2.0,337.0997758,36.59428507,-99999.0,'11111222,11111222,99999999' 
TABS,ioos:station:wmo:42045:1,2008-02-02T16:30:00Z,26.2168,-96.4998,2.0,336.1482953,36.84698088,-99999.0,'11111222,11111222,99999999' 
TABS,ioos:station:wmo:42045:1,2008-02-02T17:00:00Z,26.2168,-96.4998,2.0,335.0048336,40.32696492,-99999.0,'11111222,11111222,99999999' 
TABS,ioos:station:wmo:42045:1,2008-02-02T17:30:00Z,26.2168,-96.4998,2.0,333.2048715,45.60721105,-99999.0,'11111222,11111222,99999999' 
TABS,ioos:station:wmo:42045:1,2008-02-02T18:00:00Z,26.2168,-96.4998,2.0,326.3760535,43.44969505,-99999.0,'11111222,11111222,99999999' 
TABS,ioos:station:wmo:42045:1,2008-02-02T18:30:00Z,26.2168,-96.4998,2.0,326.493861,44.99751104,-99999.0,'11111222,11111222,99999999' 
TABS,ioos:station:wmo:42045:1,2008-02-02T19:00:00Z,26.2168,-96.4998,2.0,325.9404729,48.99491504,-99999.0,'11111222,11111222,99999999' 
TABS,ioos:station:wmo:42045:1,2008-02-02T19:30:00Z,26.2168,-96.4998,2.0,324.6157984,51.3072412,-99999.0,'11111222,11111222,99999999' 
TABS,ioos:station:wmo:42045:1,2008-02-02T20:00:00Z,26.2168,-96.4998,2.0,322.1082305,50.00195696,-99999.0,'11111222,11111222,99999999' 
TABS,ioos:station:wmo:42045:1,2008-02-02T20:30:00Z,26.2168,-96.4998,2.0,323.8448485,51.96804018,-99999.0,'11111222,11111222,99999999' 
TABS,ioos:station:wmo:42045:1,2008-02-02T21:00:00Z,26.2168,-96.4998,2.0,323.5091143,54.76719639,-99999.0,'11111222,11111222,99999999' 
TABS,ioos:station:wmo:42045:1,2008-02-02T21:30:00Z,26.2168,-96.4998,2.0,323.7099112,51.41262977,-99999.0,'11111222,11111222,99999999' 
TABS,ioos:station:wmo:42045:1,2008-02-02T22:00:00Z,26.2168,-96.4998,2.0,320.4402856,54.97057849,-99999.0,'11111222,11111222,99999999' 
TABS,ioos:station:wmo:42045:1,2008-02-02T22:30:00Z,26.2168,-96.4998,2.0,323.9973827,60.27290021,-99999.0,'11111222,11111222,99999999' 
TABS,ioos:station:wmo:42045:1,2008-02-02T23:00:00Z,26.2168,-96.4998,2.0,318.8836324,59.93054814,-99999.0,'11111222,11111222,99999999' 
TABS,ioos:station:wmo:42045:1,2008-02-02T23:30:00Z,26.2168,-96.4998,2.0,321.1441271,61.97323616,-99999.0,'11111222,11111222,99999999' 
TABS,ioos:station:wmo:42045:1,2008-02-03T00:00:00Z,26.2168,-96.4998,2.0,318.6954844,58.47909798,-99999.0,'11111222,11111222,99999999' 
TABS,ioos:station:wmo:42045:1,2008-02-03T00:30:00Z,26.2168,-96.4998,2.0,320.2777094,58.35030848,-99999.0,'11111222,11111222,99999999' 
TABS,ioos:station:wmo:42045:1,2008-02-03T01:00:00Z,26.2168,-96.4998,2.0,320.9516718,59.60508871,-99999.0,'11111222,11111222,99999999' 
TABS,ioos:station:wmo:42045:1,2008-02-03T01:30:00Z,26.2168,-96.4998,2.0,318.7505089,60.75743576,-99999.0,'11111222,11111222,99999999' 
TABS,ioos:station:wmo:42045:1,2008-02-03T02:00:00Z,26.2168,-96.4998,2.0,317.8066179,64.55848898,-99999.0,'11111222,11111222,99999999' 
TABS,ioos:station:wmo:42045:1,2008-02-03T02:30:00Z,26.2168,-96.4998,2.0,320.7147836,62.20928066,-99999.0,'11111222,11111222,99999999' 
TABS,ioos:station:wmo:42045:1,2008-02-03T03:00:00Z,26.2168,-96.4998,2.0,319.266445,61.88066338,-99999.0,'11111222,11111222,99999999' 
TABS,ioos:station:wmo:42045:1,2008-02-03T03:30:00Z,26.2168,-96.4998,2.0,320.6676896,60.64801481,-99999.0,'11111222,11111222,99999999' 
TABS,ioos:station:wmo:42045:1,2008-02-03T04:00:00Z,26.2168,-96.4998,2.0,322.2943335,59.76036228,-99999.0,'11111222,11111222,99999999' 
TABS,ioos:station:wmo:42045:1,2008-02-03T04:30:00Z,26.2168,-96.4998,2.0,317.8126828,54.18721805,-99999.0,'11111222,11111222,99999999' 
TABS,ioos:station:wmo:42045:1,2008-02-03T05:00:00Z,26.2168,-96.4998,2.0,317.8079099,48.36051385,-99999.0,'11111222,11111222,99999999' 
TABS,ioos:station:wmo:42045:1,2008-02-03T05:30:00Z,26.2168,-96.4998,2.0,327.9477348,38.62845583,-99999.0,'11111222,11111222,99999999' 
TABS,ioos:station:wmo:42045:1,2008-02-03T06:00:00Z,26.2168,-96.4998,2.0,326.8199083,29.61938892,-99999.0,'11111222,11111222,99999999' 
TABS,ioos:station:wmo:42045:1,2008-02-03T06:30:00Z,26.2168,-96.4998,2.0,328.0766495,26.00283446,-99999.0,'11111222,11111222,99999999' 
TABS,ioos:station:wmo:42045:1,2008-02-03T07:00:00Z,26.2168,-96.4998,2.0,329.7916494,23.2932458,-99999.0,'11111222,11111222,99999999' 
TABS,ioos:station:wmo:42045:1,2008-02-03T07:30:00Z,26.2168,-96.4998,2.0,331.1005651,19.76088308,-99999.0,'11111222,11111222,99999999' 
TABS,ioos:station:wmo:42045:1,2008-02-03T08:00:00Z,26.2168,-96.4998,2.0,325.4334004,19.21151738,-99999.0,'11111222,11111222,99999999' 
TABS,ioos:station:wmo:42045:1,2008-02-03T08:30:00Z,26.2168,-96.4998,2.0,328.1210212,17.81754753,-99999.0,'11111222,11111222,99999999' 
TABS,ioos:station:wmo:42045:1,2008-02-03T09:00:00Z,26.2168,-96.4998,2.0,319.2212155,16.42822267,-99999.0,'11111222,11111222,99999999' 
TABS,ioos:station:wmo:42045:1,2008-02-03T09:30:00Z,26.2168,-96.4998,2.0,332.9571786,14.47233568,-99999.0,'11111222,11111222,99999999' 
TABS,ioos:station:wmo:42045:1,2008-02-03T10:00:00Z,26.2168,-96.4998,2.0,322.3562885,14.35931057,-99999.0,'11111222,11111222,99999999' 
TABS,ioos:station:wmo:42045:1,2008-02-03T10:30:00Z,26.2168,-96.4998,2.0,322.280092,14.28557314,-99999.0,'11111222,11111222,99999999' 
TABS,ioos:station:wmo:42045:1,2008-02-03T11:00:00Z,26.2168,-96.4998,2.0,323.4403116,14.79021636,-99999.0,'11111222,11111222,99999999' 
TABS,ioos:station:wmo:42045:1,2008-02-03T11:30:00Z,26.2168,-96.4998,2.0,327.4127994,13.98103358,-99999.0,'11111222,11111222,99999999' 
TABS,ioos:station:wmo:42045:1,2008-02-03T12:00:00Z,26.2168,-96.4998,2.0,301.0976611,9.564502078,-99999.0,'11133222,11111222,99999999' 
TABS,ioos:station:wmo:42045:1,2008-02-03T12:30:00Z,26.2168,-96.4998,2.0,294.9087672,10.20968168,-99999.0,'11111222,11111222,99999999' 
TABS,ioos:station:wmo:42045:1,2008-02-03T13:00:00Z,26.2168,-96.4998,2.0,288.372981,14.53067445,-99999.0,'11111222,11111222,99999999' 
TABS,ioos:station:wmo:42045:1,2008-02-03T13:30:00Z,26.2168,-96.4998,2.0,287.9882768,12.56411159,-99999.0,'11111222,11111222,99999999' 
TABS,ioos:station:wmo:42045:1,2008-02-03T14:00:00Z,26.2168,-96.4998,2.0,271.1204683,13.81263914,-99999.0,'11111222,11111222,99999999' 
TABS,ioos:station:wmo:42045:1,2008-02-03T14:30:00Z,26.2168,-96.4998,2.0,271.0570508,17.35295076,-99999.0,'11111222,11111222,99999999' 
TABS,ioos:station:wmo:42045:1,2008-02-03T15:00:00Z,26.2168,-96.4998,2.0,262.8619043,16.82035077,-99999.0,'11111222,11111222,99999999' 
TABS,ioos:station:wmo:42045:1,2008-02-03T15:30:00Z,26.2168,-96.4998,2.0,271.4966088,18.76639816,-99999.0,'11111222,11111222,99999999' 
TABS,ioos:station:wmo:42045:1,2008-02-03T16:00:00Z,26.2168,-96.4998,2.0,267.6261181,22.9396796,-99999.0,'11111222,11111222,99999999' 
TABS,ioos:station:wmo:42045:1,2008-02-03T16:30:00Z,26.2168,-96.4998,2.0,265.854965,24.905132,-99999.0,'11111222,11111222,99999999' 
TABS,ioos:station:wmo:42045:1,2008-02-03T17:00:00Z,26.2168,-96.4998,2.0,270.8330952,31.65334264,-99999.0,'11111222,11111222,99999999' 
TABS,ioos:station:wmo:42045:1,2008-02-03T17:30:00Z,26.2168,-96.4998,2.0,282.7595381,32.64612841,-99999.0,'11111222,11111222,99999999' 
TABS,ioos:station:wmo:42045:1,2008-02-03T18:00:00Z,26.2168,-96.4998,2.0,279.9982033,35.88493416,-99999.0,'11111222,11111222,99999999' 
TABS,ioos:station:wmo:42045:1,2008-02-03T18:30:00Z,26.2168,-96.4998,2.0,282.6670685,42.82219635,-99999.0,'11111222,11111222,99999999' 
TABS,ioos:station:wmo:42045:1,2008-02-03T19:00:00Z,26.2168,-96.4998,2.0,285.6667911,38.36526033,-99999.0,'11111222,11111222,99999999' 
TABS,ioos:station:wmo:42045:1,2008-02-03T19:30:00Z,26.2168,-96.4998,2.0,285.3695466,37.01367585,-99999.0,'11111222,11111222,99999999' 
TABS,ioos:station:wmo:42045:1,2008-02-03T20:00:00Z,26.2168,-96.4998,2.0,287.8522631,35.42566866,-99999.0,'11111222,11111222,99999999' 
TABS,ioos:station:wmo:42045:1,2008-02-03T20:30:00Z,26.2168,-96.4998,2.0,292.4308421,32.81248695,-99999.0,'11111222,11111222,99999999' 
TABS,ioos:station:wmo:42045:1,2008-02-03T21:00:00Z,26.2168,-96.4998,2.0,293.6641459,27.65535934,-99999.0,'11111222,11111222,99999999' 
TABS,ioos:station:wmo:42045:1,2008-02-03T21:30:00Z,26.2168,-96.4998,2.0,306.7547462,23.81404837,-99999.0,'11111222,11111222,99999999' 
TABS,ioos:station:wmo:42045:1,2008-02-03T22:00:00Z,26.2168,-96.4998,2.0,326.2405661,20.53224294,-99999.0,'11111222,11111222,99999999' 
TABS,ioos:station:wmo:42045:1,2008-02-03T22:30:00Z,26.2168,-96.4998,2.0,328.0564476,18.74925332,-99999.0,'11111222,11111222,99999999' 
TABS,ioos:station:wmo:42045:1,2008-02-03T23:00:00Z,26.2168,-96.4998,2.0,338.6599041,21.46150507,-99999.0,'11111222,11111222,99999999' 
TABS,ioos:station:wmo:42045:1,2008-02-03T23:30:00Z,26.2168,-96.4998,2.0,349.2432236,23.57425715,-99999.0,'11111222,11111222,99999999' 
TABS,ioos:station:wmo:42045:1,2008-02-04T00:00:00Z,26.2168,-96.4998,2.0,355.476185,22.43991533,-99999.0,'11111222,11111222,99999999' 
TABS,ioos:station:wmo:42045:1,2008-02-04T00:30:00Z,26.2168,-96.4998,2.0,351.5482449,22.65605879,-99999.0,'11111222,11111222,99999999' 
TABS,ioos:station:wmo:42045:1,2008-02-04T01:00:00Z,26.2168,-96.4998,2.0,349.9893692,23.01033681,-99999.0,'11111222,11111222,99999999' 
TABS,ioos:station:wmo:42045:1,2008-02-04T01:30:00Z,26.2168,-96.4998,2.0,343.6049775,22.56766271,-99999.0,'11111222,11111222,99999999' 
TABS,ioos:station:wmo:42045:1,2008-02-04T02:00:00Z,26.2168,-96.4998,2.0,348.8787763,22.6554585,-99999.0,'11111222,11111222,99999999' 
TABS,ioos:station:wmo:42045:1,2008-02-04T02:30:00Z,26.2168,-96.4998,2.0,348.7798797,27.59749626,-99999.0,'11111222,11111222,99999999' 
TABS,ioos:station:wmo:42045:1,2008-02-04T03:00:00Z,26.2168,-96.4998,2.0,346.7943134,25.60717478,-99999.0,'11111222,11111222,99999999' 
TABS,ioos:station:wmo:42045:1,2008-02-04T03:30:00Z,26.2168,-96.4998,2.0,349.0118051,24.81496524,-99999.0,'11111222,11111222,99999999' 
TABS,ioos:station:wmo:42045:1,2008-02-04T04:00:00Z,26.2168,-96.4998,2.0,356.9583754,20.72920645,-99999.0,'11111222,11111222,99999999' 
TABS,ioos:station:wmo:42045:1,2008-02-04T04:30:00Z,26.2168,-96.4998,2.0,358.5197381,20.12671856,-99999.0,'11111222,11111222,99999999' 
TABS,ioos:station:wmo:42045:1,2008-02-04T05:00:00Z,26.2168,-96.4998,2.0,347.9484146,24.23414121,-99999.0,'11111222,11111222,99999999' 
TABS,ioos:station:wmo:42045:1,2008-02-04T05:30:00Z,26.2168,-96.4998,2.0,353.3877795,24.40232981,-99999.0,'11111222,11111222,99999999' 
TABS,ioos:station:wmo:42045:1,2008-02-04T06:00:00Z,26.2168,-96.4998,2.0,356.4316087,23.13485898,-99999.0,'11111222,11111222,99999999' 
TABS,ioos:station:wmo:42045:1,2008-02-04T06:30:00Z,26.2168,-96.4998,2.0,7.000237596,24.45226574,-99999.0,'11111222,11111222,99999999' 
TABS,ioos:station:wmo:42045:1,2008-02-04T07:00:00Z,26.2168,-96.4998,2.0,18.35790783,25.81369598,-99999.0,'11111222,11111222,99999999' 
TABS,ioos:station:wmo:42045:1,2008-02-04T07:30:00Z,26.2168,-96.4998,2.0,8.485934294,26.42933219,-99999.0,'11111222,11111222,99999999' 
TABS,ioos:station:wmo:42045:1,2008-02-04T08:00:00Z,26.2168,-96.4998,2.0,16.92403744,26.1421537,-99999.0,'11111222,11111222,99999999' 
TABS,ioos:station:wmo:42045:1,2008-02-04T08:30:00Z,26.2168,-96.4998,2.0,12.24037987,19.81034073,-99999.0,'11111222,11111222,99999999' 
TABS,ioos:station:wmo:42045:1,2008-02-04T09:00:00Z,26.2168,-96.4998,2.0,3.986251106,24.59950609,-99999.0,'11111222,11111222,99999999' 
TABS,ioos:station:wmo:42045:1,2008-02-04T09:30:00Z,26.2168,-96.4998,2.0,7.951503361,23.56656954,-99999.0,'11111222,11111222,99999999' 
TABS,ioos:station:wmo:42045:1,2008-02-04T10:00:00Z,26.2168,-96.4998,2.0,2.449999517,23.16116793,-99999.0,'11111222,11111222,99999999' 
TABS,ioos:station:wmo:42045:1,2008-02-04T10:30:00Z,26.2168,-96.4998,2.0,2.450668662,22.92095984,-99999.0,'11111222,11111222,99999999' 
TABS,ioos:station:wmo:42045:1,2008-02-04T11:00:00Z,26.2168,-96.4998,2.0,357.787669,24.34815188,-99999.0,'11111222,11111222,99999999' 
TABS,ioos:station:wmo:42045:1,2008-02-04T11:30:00Z,26.2168,-96.4998,2.0,355.5282146,25.77848134,-99999.0,'11111222,11111222,99999999' 
TABS,ioos:station:wmo:42045:1,2008-02-04T12:00:00Z,26.2168,-96.4998,2.0,5.871060065,29.52485902,-99999.0,'11111222,11111222,99999999' 
TABS,ioos:station:wmo:42045:1,2008-02-04T12:30:00Z,26.2168,-96.4998,2.0,0.04353419,26.45000756,-99999.0,'11111222,11111222,99999999' 
TABS,ioos:station:wmo:42045:1,2008-02-04T13:00:00Z,26.2168,-96.4998,2.0,3.215255215,29.77686686,-99999.0,'11111222,11111222,99999999' 
TABS,ioos:station:wmo:42045:1,2008-02-04T13:30:00Z,26.2168,-96.4998,2.0,1.808945552,31.36562768,-99999.0,'11111222,11111222,99999999' 
TABS,ioos:station:wmo:42045:1,2008-02-04T14:00:00Z,26.2168,-96.4998,2.0,0.126690707,27.18006623,-99999.0,'11111222,11111222,99999999' 
TABS,ioos:station:wmo:42045:1,2008-02-04T14:30:00Z,26.2168,-96.4998,2.0,6.541594584,28.6162978,-99999.0,'11111222,11111222,99999999' 
TABS,ioos:station:wmo:42045:1,2008-02-04T15:00:00Z,26.2168,-96.4998,2.0,1.464197263,30.52996561,-99999.0,'11111222,11111222,99999999' 
TABS,ioos:station:wmo:42045:1,2008-02-04T15:30:00Z,26.2168,-96.4998,2.0,357.948951,27.93790257,-99999.0,'11111222,11111222,99999999' 
TABS,ioos:station:wmo:42045:1,2008-02-04T16:00:00Z,26.2168,-96.4998,2.0,357.4562423,30.64019745,-99999.0,'11111222,11111222,99999999' 